FENGYUN 1C DEB, 29919

Orbit data source: Space-Track

FENGYUN 1C DEB, 29919 is space debris in SSO originally from a launch on Mon, 10 May 1999 UTC launched from the Taiyaun Space Center, China (TSC). Fengyun 1C debris stems from the Chinese weather satellite Fengyun-1C, which was intentionally destroyed by a Chinese anti-satellite missile in 2007. This event dramatically increased the amount of space debris, with thousands of trackable fragments posing hazards to satellites and human spaceflight. The Fengyun 1C debris cloud has become a focal point in discussions about space sustainability and the need for international regulations to prevent the creation of new debris.

Loading next visibility...
Identifier
29919, 1999-025HR
Orbit
SSO
Country
Flag of CNCN / PRC
Related business
Manufacturer
Unknown
Mission
Spacecraft
Bus & Motor
Unknown
Mass
Unknown
Launch date (UTC)
1999-05-10 (27 years ago)
Launch vehicle
Unknown
Launch site
Taiyaun Space Center, China (TSC)
Object type
Payload
Rocket body
Debris
Shape & HBR
Unknown shape, 0.1 m
Radar Cross Section
Small (<0.1 m²)

Expand to show TLE details & history
Last TLE update: 22 hours ago

TLE from 22 hours ago
0 FENGYUN 1C DEB
1 29919U 99025HR  25348.21267078  .00000239  00000-0  22761-3 0  9995
2 29919  98.4791 142.4999 0137296 339.7684 198.1141 13.85123877955555
Epoch: 2025-12-14T05:06Z
TLE epoch observation values (Epoch: 2025-12-14T05:06:14.755Z)
Latitude
2.4715°
Longitude
163.17638°
Altitude
1,044.076 km
Speed
7.282 km/s
True Right ascension
21h 31m 28s
True Declination
2° 27' 26"
Sunlit
Object was in daylight at epoch
Visualization orbit readout
Latitude
Unknown
Longitude
Unknown
Altitude
Unknown
Speed
Unknown
Apparent Right ascension
Unknown
Apparent Declination
Unknown
Sunlit
N/A
Visualization observer readout
Local Sidereal Time
02:09:43
Azimuth
Unknown
Elevation
Unknown
Doppler factor
Unknown
Orbital elements
Apogee altitude
1,043.479 km
Perigee altitude
842.447 km
Semi-major axis
7,321.1 km
Eccentricity
0.01373
Inclination
98.4791°
RAAN
142.4999°
Arg. of periapsis
339.7684°
True anomaly
197.63281°
Mean anomaly
198.1141°
Eccentric anomaly
197.87268°
Mean motion
3.4648 °/min
Orbital period
103.9 mins
BSTAR
0.00022761
Loading maneuver chart data...
Computing Atmospheric mass density...

Documentation

Showing up to 5 results
|